www.pogodaiklimat.ru

Погода и климат >> Архив погоды >> Индия >> Veraval


ПОГОДА в Veraval

  • Прогноз погоды в Veraval
  • Монитор погоды в Veraval
  • Климат города

АРХИВ ПОГОДЫ в Veraval

Время (UTC), дата Ветер
(напр.,м/с)
 
Видим.   Явления Облачность Т
(С)
Тd
(С)
f
(%)
Тe
(С)
Тes
(С)
Комфортность P
(гПа)
Po
(гПа)
Тmin
(С)
Tmax
(С)
R
(мм)
R24
(мм)
S
(см)
15 12.09 штиль 0 4000 м 3/3 600 м
[Sc]
+29.0 +12.7 37 +43 +43 опасность
перегрева
1007.2 1007.0
18 12.09 штиль 0 4000 м зарница 8/8 600 м
[Cb cap Ac trans]
+28.6 +25.5 83 +42 +42 опасность
перегрева
1008.4 1008.0
21 12.09 штиль 0 4000 м 8/3 600 м
[Sc Ac trans]
+28.2 +25.5 85 +41 +41 опасность
перегрева
1008.0 1008.0
00 13.09 штиль 0 4000 м 8/3 600 м
[Sc Ac trans]
+27.0 +24.4 86 +38 +38 очень
душно
1007.7 1008.0
03 13.09 штиль 0 10 км 8/4 600 м
[Cu Sc Ac trans]
+28.0 +12.0 37 +26 +27 жарко 1009.3 1009.0 +27.0
06 13.09 З 2 10 км 8/4 600 м
[Cu Sc Ac trans]
+30.6 0.0 14 +28 +35 жарко 1009.8 1010.0
09 13.09 З 2 10 км 8/4 600 м
[Cu Sc Ac trans]
+31.0 0.0 14 +28 +34 жарко 1007.8 1008.0
12 13.09 З 2 10 км 8/4 600 м
[Cu Sc Ac trans]
+28.8 +12.6 37 +26 +27 жарко 1005.9 1006.0 +30.8
15 13.09 СЗ 1 4000 м 8/0 2000 м
[Ac trans]
+28.0 +25.2 85 +41 +41 опасность
перегрева
1007.1 1007.0
18 13.09 СЗ 1 4000 м 8/0 2000 м
[Ac trans]
+28.0 +25.2 85 +41 +41 опасность
перегрева
1007.1 1007.0
21 13.09 штиль 0 4000 м ясно +26.8 +24.8 89 +38 +38 очень
душно
1007.8 1008.0
00 14.09 С 1 4000 м ясно +26.2 +12.3 42 +37 +37 очень
душно
1007.6 1008.0
03 14.09 штиль 0 10 км 5/1 600 м
[Sc Ci fib]
+27.0 0.0 17 +25 +29 комфорт 1008.8 1009.0 +26.0
06 14.09 З 2 10 км 6/6 600 м
[]
+31.2 0.0 13 +28 +36 жарко 1009.1 1009.0
09 14.09 З 2 10 км 6/3 600 м
[Sc Ci fib]
+31.4 0.0 13 +28 +39 жарко 1007.1 1007.0
12 14.09 З 2 10 км 4/0
[Ci fib]
+30.2 +11.7 32 +27 +30 жарко 1006.2 1006.0 +32.3
15 14.09 штиль 0 4000 м 4/0
[Ci fib]
+28.8 +23.6 74 +39 +39 очень
душно
1006.4 1006.0
18 14.09 штиль 0 4000 м 3/0
[Ci fib]
+26.8 +24.2 86 +37 +37 очень
душно
1008.1 1008.0
21 14.09 штиль 0 4000 м ясно +27.0 +24.1 84 +37 +37 очень
душно
1006.9 1007.0
00 15.09 штиль 0 4000 м ясно +26.0 +12.0 42 +36 +36 очень
душно
1006.6 1007.0
03 15.09 С 1 10 км 4/0
[Ci fib]
+26.6 0.0 18 +25 +29 комфорт 1008.0 1008.0 +25.5
06 15.09 З 2 10 км 8/4 600 м
[Cu Sc Ci fib]
+31.6 0.0 13 +28 +38 жарко 1008.0 1008.0
09 15.09 З 2 10 км 5/0
[Ci fib]
+31.2 0.0 13 +28 +42 жарко 1006.0 1006.0
12 15.09 З 2 10 км 3/0
[Ci fib]
+30.4 +11.7 32 +27 +30 жарко 1004.3 1004.0 +32.0
15 15.09 З 1 4000 м 3/0
[Ci fib]
+28.4 +23.8 76 +39 +39 очень
душно
1006.0 1006.0
18 15.09 штиль 0 4000 м 3/0
[Ci fib]
+27.8 +25.2 86 +40 +40 очень
душно
1006.7 1007.0
21 15.09 штиль 0 4000 м ясно +27.0 +25.0 89 +39 +39 очень
душно
1005.6 1006.0
00 16.09 штиль 0 4000 м ясно +26.6 +24.3 87 +37 +37 очень
душно
1005.2 1005.0
03 16.09 штиль 0 10 км ясно +27.8 +12.0 38 +25 +30 комфорт 1006.7 1007.0 +25.9
06 16.09 З 2 10 км 6/5 600 м
[Cu Sc]
+31.4 0.0 13 +28 +36 жарко 1007.1 1007.0
09 16.09 З 2 10 км 3/0 2000 м
[Ci sp]
+31.4 0.0 13 +28 +44 жарко 1004.7 1005.0
12 16.09 З 4 10 км 5/3 600 м
[Sc Ac trans]
+30.0 +12.0 33 +27 +28 жарко 1003.8 1004.0 +31.8
15 16.09 штиль 0 4000 м зарница 8/1 600 м
[Cb cap Ac trans]
+28.6 +24.0 76 +40 +40 очень
душно
1005.5 1006.0
18 16.09 штиль 0 4000 м 3/0
[Ci fib]
+26.0 +24.0 89 +36 +36 очень
душно
1006.0 1006.0
21 16.09 штиль 0 4000 м ясно +25.6 +23.6 89 +35 +35 очень
душно
1004.3 1004.0
00 17.09 штиль 0 4000 м ясно +26.0 +11.7 41 +36 +36 очень
душно
1004.6 1005.0
03 17.09 штиль 0 10 км 8/3 600 м
[Sc Ac trans]
+27.0 0.0 17 +25 +27 комфорт 1005.9 1006.0 +25.6
06 17.09 штиль 0 10 км 8/3 600 м
[Sc Ac trans]
+30.4 0.0 14 +27 +37 жарко 1006.6 1007.0
09 17.09 З 3 4000 м гроза без осадков 9/5 600 м
[Cb cap Ac trans]
+29.2 0.0 15 +27 +30 жарко 1004.7 1005.0
12 17.09 З 1 4000 м слабая морось {дождь} 9/5 600 м
[Sc Ac trans]
+25.8 0.0 18 +24 +25 комфорт 1004.0 1004.0 +30.5 40
15 17.09 штиль 0 4000 м 6/6 600 м
[Sc As op]
+26.2 +12.0 41 +38 +38 очень
душно
1005.3 1005.0 40
18 17.09 В 2 4000 м морось 10/8 600 м
[Sc As op]
+25.8 +23.8 89 +35 +35 очень
душно
1006.9 1007.0 44
21 17.09 СВ 1 4000 м морось 10/8 600 м
[Sc As op]
+25.0 +23.5 91 +34 +34 очень
душно
1004.4 1004.0 60
00 18.09 штиль 0 4000 м морось 10/8 600 м
[Sc As op]
+26.2 +11.7 40 +38 +38 очень
душно
1004.9 1005.0 62
03 18.09 штиль 0 10 км 10/8 600 м
[Sc As op]
+26.4 0.0 18 +25 +25 комфорт 1006.2 1006.0 +24.0 62
06 18.09 штиль 0 10 км 9/6 600 м
[Cu Sc Ac trans]
+28.6 0.0 16 +26 +31 жарко 1006.5 1007.0
09 18.09 З 3 10 км 9/6 600 м
[Sc Ac trans]
+27.4 0.0 17 +25 +28 комфорт 1004.5 1005.0 0.3
12 18.09 З 2 4000 м мгла {морось} 10/8 540 м
[Frnb Ac und]
+27.0 +12.0 39 +25 +25 комфорт 1003.7 1004.0 +29.2 3
15 18.09 СЗ 3 4000 м мгла {морось} 10/8 450 м
[Frnb Ac trans]
+25.8 +24.4 92 +36 +36 очень
душно
1005.5 1006.0 3
18 18.09 СЗ 3 4000 м 8/6 600 м
[Sc Ac trans]
+27.0 +25.6 92 +40 +40 очень
душно
1006.3 1006.0 3
21 18.09 С 4 4000 м 6/5 600 м
[Sc Ac trans]
+26.8 +25.4 92 +39 +39 очень
душно
1004.5 1005.0 3
00 19.09 штиль 0 4000 м 9/6 600 м
[Cu Sc Ac trans]
+25.6 +25.3 98 +37 +37 очень
душно
1004.5 1005.0 3
03 19.09 штиль 0 10 км мгла {морось} 9/5 600 м
[Sc Ac As]
+27.2 0.0 17 +25 +26 комфорт 1006.0 1006.0 +25.9 3
06 19.09 З 2 4000 м мгла {морось} 9/6 540 м
[Frnb Ac trans]
+27.6 0.0 17 +25 +29 комфорт 1006.3 1006.0 0.8
09 19.09 З 2 10 км 9/6 600 м
[Cu Sc Ac trans]
+28.2 +25.9 87 +42 +46 опасность
перегрева
1004.9 1005.0 0.8
12 19.09 З 2 10 км 9/6 600 м
[Cu Sc Ac trans]
+27.8 0.0 16 +25 +26 комфорт 1003.9 1004.0 +30.5 0.8

 

Местоположение метеостанции Veraval (Gujarat, Индия): широта 20.90 долгота 70.37 высота над уровнем моря 8 м.

В архиве по умолчанию представлена погода в Veraval за последнюю неделю. Архивные данные за месяц целиком и за предыдущие месяцы, начиная с января 2011 года, Вы можете получить, выбрав интересующий диапазон дат из раскрывающегося списка и нажав кнопку "Ввод!".

Внимание! Время в таблицах - всемирное. Для получения местного времени необходимо прибавить поправку, которая в Veraval равна 5.5 ч.

Смотрите также архив погоды в соседних городах и на ближайших метеорологических станциях:

Погода в Diu (Daman and Diu, Индия) (61 км)
Погода в Porbandar (Gujarat, Индия) (111 км)
Погода в Amreli (Gujarat, Индия) (118 км)
Погода в Mahuva (Gujarat, Индия) (148 км)
Погода в Rajkot (Gujarat, Индия) (161 км)
Погода в Dwarka (Gujarat, Индия) (211 км)
Погода в Bhaunagar (Gujarat, Индия) (212 км)
Погода в Okha (Gujarat, Индия) (218 км)
Погода в New Kandla (Gujarat, Индия) (234 км)
Погода в Surendranagar (Gujarat, Индия) (240 км)

Пояснения к столбцам:

Ветер - указаны скорость ветра в м/с - средняя за 10 мин, порывы в срок и между сроками (в фигурных скобках) и направление, откуда дует ветер: С - северный, СВ - северо-восточный, В - восточный, ЮВ - юго-восточный, Ю - южный, ЮЗ - юго-западный, З - западный, СЗ - северо-западный.
Видимость - горизонтальная дальность видимости в метрах или километрах. При видимости от 1 до 10 км при отсутствии осадков обычно наблюдается дымка, при ухудшении видимости до 1 км и менее - туман. В сухую погоду видимость может ухудшаться дымом, пылью или мглою.
Явления - указаны атмосферные явления, наблюдавшиеся в срок или в последний час перед сроком; фигурными скобками обозначены явления, наблюдавшиеся между сроками (за 1-3 часа до срока); квадратными скобками обозначены град или гололедные отложения с указанием их диаметра в мм.
Облачность - указаны через наклонную черту общая и нижняя облачность в баллах и высота нижней границы облаков в метрах; квадратными скобками обозначены формы облаков: Ci - перистые, Cs - перисто-слоистые, Cc - перисто-кучевые, Ac - высококучевые, As - высокослоистые, Sc - слоисто-кучевые, Ns - слоисто-дождевые, Cu - кучевые, Cb - кучево-дождевые. Подробнее классификацию облаков см. в Атласе облаков (PDF).
T - Температура воздуха - температура, измеренная на высоте 2 м над землей.
Td - Температура точки росы - температура, при понижении до которой содержащийся в воздухе водяной пар достигнет насыщения.
f - Относительная влажность воздуха - влажноcть воздуха, измеренная на высоте 2 м над землей.
Te - Эффективная температура - температура, которую ощущает одетый по сезону человек в тени. Характеристика душности погоды. При расчете учитывается влияние влажности воздуха и скорости ветра на теплоощущения человека.
Tes - Эффективная температура на солнце - температура, которую ощущает человек, с поправкой на солнечный нагрев. Характеристика знойности погоды. Зависит от высоты солнца над горизонтом, облачности и скорости ветра. Ночью, в пасмурную погоду, а также при ветре 12 м/с и более поправка равна нулю.
P - Атмосферное давление - приведенное к уровню моря атмосферное давление.
Po - Атмосферное давление - измеренное на уровне метеостанции атмосферное давление.
Tmin - Минимальная температура - минимум температуры воздуха на высоте 2 м над землей.
Tmax - Максимальная температура - максимум температуры воздуха на высоте 2 м над землей.
R - Количество осадков - Количество выпавших осадков за период времени, мм. При наведении курсора мыши на число - период времени, за который выпало указанное количество осадков.
R24 - Количество осадков - Количество выпавших осадков за 24 часа, мм.
S - Снежный покров - Высота снежного покрова, см. При наведении курсора мыши на число - состояние снежного покрова и степень покрытия местности в баллах.